Main page
METAR-TAF:

METAR-TAF

Airports :

Sarakhs Airport

Sarakhs, Iran

latitude: 36-30-04N, longitude: 061-03-54E, elevation: 288 m

Current weather observation

The report was made 4 hours and 22 minutes ago, at 17:00 UTC
Wind 20 kt from the Northwest
Temperature 12°C
Humidity 94%
Pressure 1014 hPa
Visibility: 5000 m
Broken clouds at a height of 2500 ft
Overcast at a height of 8000 ft
light drizzle

METAR: OIMC 201700Z 32020KT 5000 -DZ BKN025 OVC080 12/11 Q1014

Time: 01:52 (21:22 UTC)


TAF: missing

Weather observations and forecasts of more than 4000 airports (METAR and TAF reports).

The available stations are represented by yellow and red dots on the map.

Hover mouse over dot to see the name of the station.

Then click to see weather observations and forecasts.

To change the map : click on the green buttons with a black cross to zoom in, on the green button with a dash to zoom out, or on the green arrows for adjacent maps.


METAR-TAF: